This demonstration page uses our WeatherBlox Daily Observations layout. Learn more.

Left ArrowRight Arrow

Hourly Observations for July 4, 2016

Temp ( °F °C ) Dew Point ( °F °C ) Humidity (%) Winds ( mph kmh ) Pressure ( in mb ) Visibility ( mi km ) Precip ( " mm )
12:48 am 00:48 Mostly Cloudy with Light Rain 64 18 61 16 88 88 ESE 5 7 30.00 1016 8 13 N/A
12:53 am 00:53 Partly Cloudy with Light Rain 64 17.8 61 16.1 90 90 ESE 5 7 30.00 1016 9 14 N/A
1:53 am 01:53 Cloudy with Light Rain 64 17.8 61 16.1 90 90 E 7 11 29.98 1015 8 13 0.01 0.25
2:53 am 02:53 Cloudy with Light Rain 64 17.8 61 16.1 90 90 ESE 5 7 29.96 1015 7 11 0.01 0.25
3:35 am 03:35 Cloudy 64 17.8 61 16.1 90 90 E 5 7 29.97 1015 7 11 N/A
3:53 am 03:53 Cloudy 64 17.8 62 16.7 93 93 E 3 6 29.94 1014 7 11 N/A
4:53 am 04:53 Cloudy 64 17.8 62 16.7 93 93 E 5 7 29.93 1014 8 13 N/A
5:03 am 05:03 Cloudy 64 17.8 62 16.7 93 93 N N/A 29.94 1014 7 11 N/A
6:53 am 06:53 Cloudy with Mist and Fog 65 18.3 62 16.7 90 90 ENE 3 6 29.93 1014 6 10 N/A
7:12 am 07:12 Cloudy with Light Rain 65 18.3 63 17.2 93 93 E 5 7 29.94 1014 2 3 0.01 0.25
7:33 am 07:33 Cloudy with Rain 65 18.3 63 17.2 93 93 E 3 6 29.94 1014 1 2 0.03 0.76
7:53 am 07:53 Cloudy with Heavy Rain 65 18.3 63 17.2 93 93 N N/A 29.92 1013 1 1 0.14 3.56
8:06 am 08:06 Cloudy with Rain 65 18.3 63 17.2 93 93 N N/A 29.94 1014 1 2 0.05 1.27
8:17 am 08:17 Cloudy with Rain 65 18.3 63 17.2 93 93 N N/A 29.94 1014 1 2 0.07 1.78
8:30 am 08:30 Cloudy with Light Rain 65 18.3 64 17.8 97 97 N N/A 29.94 1014 2 2 0.10 2.54
8:32 am 08:32 Cloudy with Light Rain 65 18.3 64 17.8 97 97 N N/A 29.94 1014 2 3 0.10 2.54
8:53 am 08:53 Cloudy with Light Rain 66 18.9 64 17.8 93 93 N N/A 29.93 1014 3 5 0.10 2.54
8:58 am 08:58 Cloudy with Light Rain 66 18.9 64 17.8 93 93 E 3 6 29.94 1014 3 4 N/A
9:09 am 09:09 Cloudy with Light Rain 66 18.9 64 17.8 93 93 E 5 7 29.94 1014 4 6 N/A
9:14 am 09:14 Cloudy with Mist and Fog 66 18.9 64 17.8 93 93 E 3 6 29.94 1014 3 4 N/A
9:36 am 09:36 Cloudy with Light Rain 66 18.9 64 17.8 93 93 E 5 7 29.94 1014 2 3 0.02 0.51
9:39 am 09:39 Cloudy with Light Rain 67 19.4 65 18.3 93 93 E 5 7 29.94 1014 2 3 0.02 0.51
9:53 am 09:53 Cloudy with Mist and Fog 67 19.4 65 18.3 93 93 E 3 6 29.93 1014 6 10 0.02 0.51
10:07 am 10:07 Cloudy 67 19.4 65 18.3 93 93 E 3 6 29.94 1014 10 16 N/A
10:53 am 10:53 Cloudy with Light Rain 68 20 65 18.3 90 90 ESE 3 6 29.92 1013 3 5 N/A
10:58 am 10:58 Cloudy with Heavy Rain 68 20 65 18.3 90 90 E 3 6 29.94 1014 2 3 0.02 0.51
11:24 am 11:24 Cloudy with Light Rain 68 20 66 18.9 93 93 E 5 7 29.94 1014 3 4 0.07 1.78
11:31 am 11:31 Cloudy with Light Rain 68 20 66 18.9 93 93 E 5 7 29.94 1014 5 8 0.07 1.78
11:53 am 11:53 Cloudy 69 20.6 66 18.9 90 90 N N/A 29.92 1013 9 14 0.07 1.78
12:03 pm 12:03 Cloudy with Light Rain 68 20 66 18.9 93 93 N N/A 29.94 1014 2 3 N/A
12:10 pm 12:10 Cloudy with Light Rain 68 20 66 18.9 93 93 N N/A 29.94 1014 1 2 N/A
12:23 pm 12:23 Cloudy with Light Rain 69 20.6 67 19.4 93 93 N N/A 29.94 1014 2 3 0.01 0.25
12:27 pm 12:27 Cloudy with Light Rain 69 20.6 67 19.4 93 93 N N/A 29.94 1014 2 2 0.01 0.25
12:37 pm 12:37 Cloudy with Light Rain 69 20.6 67 19.4 93 93 E 3 6 29.91 1013 2 3 0.01 0.25
12:45 pm 12:45 Cloudy with Mist and Fog 69 20.6 67 19.4 93 93 E 3 6 29.91 1013 3 4 0.01 0.25
12:53 pm 12:53 Cloudy with Mist and Fog 69 20.6 67 19.4 93 93 E 3 6 29.90 1013 3 5 0.01 0.25
1:12 pm 13:12 Cloudy with Mist and Fog 69 20.6 67 19.4 93 93 ESE 3 6 29.91 1013 3 4 N/A
1:17 pm 13:17 Cloudy with Mist and Fog 70 21.1 68 20 93 93 E 5 7 29.91 1013 4 6 N/A
1:53 pm 13:53 Cloudy with Light Rain 72 22.2 69 20.6 91 91 VRB 3 6 29.88 1012 9 14 N/A
2:05 pm 14:05 Cloudy 73 22.8 70 21.1 90 90 VRB 5 7 29.88 1012 10 16 N/A
2:17 pm 14:17 Cloudy 74 23.3 70 21.1 88 88 VRB 5 7 29.88 1012 10 16 N/A
2:53 pm 14:53 Cloudy 73 22.8 70 21.1 90 90 SW 5 7 29.90 1012 10 16 N/A
3:05 pm 15:05 Cloudy with Light Rain 73 22.8 70 21.1 90 90 SW 6 9 29.91 1013 10 16 N/A
3:36 pm 15:36 Cloudy with Light Rain 74 23.3 70 21.1 88 88 N N/A 29.91 1013 9 14 N/A
3:53 pm 15:53 Cloudy with Light Rain 74 23.3 70 21.1 88 88 N N/A 29.91 1013 8 13 N/A
4:00 pm 16:00 Cloudy with Light Rain 74 23.3 70 21.1 88 88 SW 3 6 29.91 1013 8 13 N/A
4:25 pm 16:25 Cloudy with Light Rain 74 23.3 71 21.7 91 91 WSW 3 6 29.91 1013 6 10 0.01 0.25
4:49 pm 16:49 Cloudy with Rain 73 23 72 22 94 94 N N/A 29.91 1013 2 3 0.04 1.02
4:53 pm 16:53 Cloudy with Light Rain 74 23.3 71 21.7 91 91 N N/A 29.89 1012 3 5 0.04 1.02
5:03 pm 17:03 Cloudy with Mist and Fog 74 23.3 71 21.7 91 91 N N/A 29.88 1012 5 8 N/A
5:32 pm 17:32 Cloudy 75 23.9 72 22.2 90 90 N N/A 29.88 1012 8 13 N/A
5:53 pm 17:53 Cloudy 75 23.9 71 21.7 88 88 VRB 5 7 29.87 1012 10 16 N/A
6:00 pm 18:00 Cloudy 74 23.3 71 21.7 91 91 S 5 7 29.88 1012 10 16 N/A
6:11 pm 18:11 Cloudy 75 23.9 71 21.7 88 88 SSW 3 6 29.88 1012 10 16 N/A
6:53 pm 18:53 Cloudy 76 24.4 72 22.2 88 88 SSW 3 6 29.86 1011 10 16 N/A
7:26 pm 19:26 Cloudy 75 23.9 72 22.2 90 90 N N/A 29.88 1012 10 16 N/A
7:53 pm 19:53 Cloudy 75 23.9 72 22.2 90 90 N N/A 29.86 1011 10 16 N/A
8:18 pm 20:18 Cloudy 75 23.9 72 22.2 90 90 SW 3 6 29.88 1012 10 16 N/A
8:48 pm 20:48 Mostly Cloudy 73 23 72 22 94 94 SSW 3 6 29.88 1012 10 16 N/A
8:53 pm 20:53 Cloudy 74 23.3 71 21.7 91 91 N N/A 29.85 1011 10 16 N/A
9:39 pm 21:39 Mostly Cloudy 73 22.8 71 21.7 94 94 N N/A 29.88 1012 9 14 N/A
9:53 pm 21:53 Cloudy 73 22.8 71 21.7 94 94 SW 3 6 29.86 1011 10 16 N/A
10:53 pm 22:53 Cloudy 73 22.8 71 21.7 94 94 SW 3 6 29.87 1012 7 11 N/A
11:05 pm 23:05 Cloudy with Mist and Fog 73 22.8 71 21.7 94 94 SW 3 6 29.88 1012 6 10 N/A
11:42 pm 23:42 Cloudy with Mist and Fog 72 22.2 70 21.1 94 94 N N/A 29.88 1012 6 10 N/A
11:53 pm 23:53 Cloudy with Mist and Fog 72 22.2 70 21.1 94 94 N N/A 29.88 1012 5 8 N/A

Powered by AerisWeather